Погода в Зубцове

Россия / Тверская область     56°10′34″N   34°34′57″E
темп.,
°C
ветер,
м/с
пор.,
м/с
влажн.,
%
обл.,
%
осадки,
мм/ч
давл.,
гПа
погр.,
м
20 апреля, вт
вт2000:00+6всв51069100 0.0 1023664
03:00+5в596295 0.0 1022625
06:00+2всв4980100 0.0 1022706
09:00+2всв5993100 0.1 1022620
12:00+6в586797 0.1 10201043
15:00+9в6861100 0.1 10181425
18:00+5в6978100 0.1 10171064
21:00+3всв4896100 0.1 1015646
21 апреля, ср
ср2100:00+3всв3795100 0.1 1012769
03:00+3ссв4898100 0.7 1008545
06:00+2ссв41098100 3.5 1005486
09:00+1с3799100 6.6 1003292
12:00+2зсз3599100 1.1 1003221
15:00+2з4999100 1.6 1004343
18:00+2з51097100 0.4 1006543
21:00+3зюз41098100 0.8 1008696
22 апреля, чт
чт2200:00+3ююз2797100 0.0 1009206
03:00+2ююз3795100 0.0 1010153
06:00+2ююз379493 0.0 1011173
09:00+6ююз467926 0.0 1012381
12:00+11ююз566416 0.0 10131177
15:00+10ююз5871100 0.6 10131099
18:00+11ююз487061 0.1 10141160
21:00+7ююв412865 0.2 1014280
23 апреля, пт
пт2300:00+6ююв514845 0.0 1014370
03:00+5ююв412915 0.0 1013292
06:00+6ююв5149339 0.0 1012358
09:00+9ю61184100 0.0 1012743
12:00+10ююз587694 0.1 10131016
15:00+14ю6126661 1.9 10111665
18:00+13ю81571100 1.8 10091388
21:00+7юз31095100 8.3 1010703
24 апреля, сб
сб2400:00+5зюз5895100 5.2 1010822
03:00+4юз3891100 5.3 1011582
06:00+3юз3689100 0.1 1011460
09:00+5ююз4682100 0.2 1010757
12:00+7юз5766100 0.7 10091484
15:00+6юз577199 1.4 10091002
18:00+4з5785100 1.8 1010744
21:00+3зсз498972 2.6 1011708